CAPE
4 1 59 39 15 13 12 17 28 42 170 109 99 42 28 15 13 1 0 0 0 0 0 0 0 0 0 0 0 0 0 0 4 6 9 14 20 26
7 4 6 26 24 18 15 17 53 53 109 33 2 60 90 34 19 48 9 0 0 0 0 0 0 0 0 0 0 0 0 0 0 0 0 0 1 4
2 5 3 2 11 59 52 48 22 5 50 66 11 0 0 0 3 29 37 18 1 0 0 0 0 0 0 0 0 0 0 0 0 0 0 0 0 0
4 4 5 1 1 2 2 53 45 26 20 66 22 2 1 0 0 0 0 4 13 0 0 0 0 0 0 0 0 0 0 0 0 0 0 0 0 0
6 4 5 2 1 1 3 4 4 41 52 54 33 42 10 0 2 0 0 0 0 0 0 0 0 0 0 0 0 0 0 0 0 0 0 0 0 0
7 5 5 4 2 3 1 5 5 3 59 176 102 88 61 43 25 9 10 2 1 0 0 0 0 0 0 0 0 0 0 0 0 0 0 0 0 0
2 1 3 3 1 0 3 2 1 5 3 29 60 128 140 160 126 132 130 69 59 85 36 0 0 0 0 0 0 0 0 0 0 0 0 0 0 0
3 2 0 0 1 0 0 0 0 1 5 5 151 113 85 141 159 138 142 184 98 107 102 180 140 80 8 0 0 0 0 0 0 0 0 0 0 0
1 1 0 0 0 0 0 0 0 0 0 2 2 3 2 3 5 5 90 189 175 119 131 175 276 138 58 0 0 0 0 0 0 0 0 0 0 0
0 0 0 0 0 0 0 2 2 1 1 3 3 3 3 2 2 1 2 4 97 0 0 131 127 237 230 149 0 0 0 0 1 1 0 0 0 0
0 0 0 0 0 0 2 1 1 2 0 0 0 0 0 0 0 2 1 0 36 0 0 2 11 78 283 302 216 0 0 2 2 1 1 0 0 0
1 0 0 0 0 0 0 2 1 1 0 0 0 0 0 0 0 4 3 1 1 1 0 2 1 0 110 248 295 91 4 0 1 1 0 0 0 0
0 0 0 0 0 0 0 0 0 0 0 0 0 0 0 0 0 4 3 2 2 3 0 1 2 0 0 1 2 0 0 0 0 0 0 0 1 0
0 0 0 0 0 0 0 0 0 0 0 0 0 0 0 0 0 2 0 0 0 0 0 0 1 1 1 0 1 0 0 0 0 0 0 0 0 0
0 0 0 0 0 0 0 0 0 0 0 0 0 0 0 0 0 0 0 0 0 0 0 0 0 2 2 2 2 2 1 0 0 0 0 0 0 0
0 0 0 0 0 0 0 0 0 0 0 0 0 0 0 0 0 0 0 2 0 0 0 0 0 1 6 6 4 4 3 2 0 0 0 0 0 0
0 0 0 0 0 0 0 0 0 0 0 0 0 0 0 0 0 0 0 0 0 0 0 0 0 1 0 2 1 0 0 2 0 0 0 0 0 0
0 0 0 0 0 0 0 0 0 0 0 0 0 0 0 0 0 0 0 0 0 0 0 0 0 0 0 0 0 0 0 2 0 0 0 0 0 0
0 0 0 0 0 0 0 0 0 0 0 0 0 0 0 0 0 0 0 0 0 0 0 0 0 0 0 0 0 0 0 0 0 0 0 0 0 0
0 0 0 0 0 0 0 0 0 0 0 0 0 0 0 0 0 0 0 0 0 0 0 0 0 0 0 0 0 0 0 0 0 0 0 0 0 0
0 0 0 0 0 0 0 0 0 0 0 0 0 0 0 0 0 0 0 0 0 0 0 0 0 0 0 0 0 0 0 0 0 0 0 0 0 0
0 0 0 0 0 0 0 0 0 0 0 0 0 0 0 0 0 0 0 0 0 0 0 0 0 0 0 0 0 0 0 0 0 0 0 0 0 0
0 0 0 0 0 0 0 0 0 0 0 0 0 0 0 0 0 0 0 0 0 0 0 0 0 0 0 0 0 0 0 0 0 0 0 0 0 0
CIN
-0 -0 -0 -0 -8 -3 -4 -13 -3 -1 -0 -0 -4 -5 -7 -8 -3 -11 -0 -0 -0 -0 -0 -0 -0 -0 -0 -0 -0 -0 -0 -3 -20 -17 -19 -12 -8 -7
-0 -0 -7 -0 -0 -0 -4 -7 -3 -1 -0 -37 -2 -9 -5 -2 -5 -0 -0 -0 -0 -0 -0 -0 -0 -0 -0 -0 -0 -0 -0 -0 -0 -0 -0 -0 -4 -6
-0 -0 -0 -0 -0 -1 -0 -0 -0 -13 -1 -29 -84 -0 -0 -0 -52 -3 -0 -1 -0 -0 -0 -0 -0 -0 -0 -0 -0 -0 -0 -0 -0 -0 -0 -0 -0 -0
-0 -0 -0 -0 -0 -0 -0 -0 -0 -7 -1 -1 -64 -0 -0 -0 -0 -0 -0 -0 -0 -0 -0 -0 -0 -0 -0 -0 -0 -0 -0 -0 -0 -0 -0 -0 -0 -0
-0 -0 -0 -0 -0 -0 -0 -0 -0 -7 -17 -14 -28 -6 -23 -0 -0 -0 -0 -0 -0 -0 -0 -0 -0 -0 -0 -0 -0 -0 -0 -0 -0 -0 -0 -0 -0 -0
-0 -0 -0 -0 -0 -0 -0 -0 -0 -0 -5 -0 -8 -5 -9 -34 -19 -23 -15 -31 -0 -0 -0 -0 -0 -0 -0 -0 -0 -0 -0 -0 -0 -0 -0 -0 -0 -0
-0 -0 -0 -0 -0 -0 -0 -0 -0 -0 -13 -0 -0 -1 -4 -1 -8 -3 -0 -9 -28 -8 -33 -0 -0 -0 -0 -0 -0 -0 -0 -0 -0 -0 -0 -0 -0 -0
-0 -0 -0 -0 -0 -0 -0 -0 -0 -0 -0 -0 -0 -0 -0 -0 -1 -2 -2 -1 -4 -34 -14 -2 -2 -3 -50 -0 -0 -0 -0 -0 -0 -0 -0 -0 -0 -0
-0 -0 -0 -0 -0 -0 -0 -0 -0 -0 -0 -0 -0 -0 -0 -0 -0 -0 -13 -0 -1 -7 -9 -0 -2 -0 -0 -0 -0 -0 -0 -0 -0 -0 -0 -0 -0 -0
-0 -0 -0 -0 -0 -0 -0 -0 -0 -0 -0 -0 -0 -0 -0 -0 -0 -0 -0 -0 -2 -0 -0 -0 -0 -0 -0 -5 -0 -0 -0 -0 -0 -0 -0 -0 -0 -0
-0 -0 -0 -0 -0 -0 -0 -0 -0 -0 -0 -0 -0 -0 -0 -0 -0 -0 -0 -0 -52 -0 -0 -0 -37 -6 -0 -1 -14 -0 -0 -0 -0 -0 -0 -0 -0 -0
-0 -0 -0 -0 -0 -0 -0 -0 -0 -0 -0 -0 -0 -0 -0 -0 -0 -0 -0 -0 -0 -0 -0 -0 -0 -0 -0 -0 -0 -0 -6 -0 -0 -0 -0 -0 -0 -0
-0 -0 -0 -0 -0 -0 -0 -0 -0 -0 -0 -0 -0 -0 -0 -0 -0 -0 -0 -0 -0 -0 -0 -0 -0 -0 -0 -0 -0 -0 -0 -0 -0 -0 -0 -0 -0 -0
-0 -0 -0 -0 -0 -0 -0 -0 -0 -0 -0 -0 -0 -0 -0 -0 -0 -0 -0 -0 -0 -0 -0 -0 -0 -0 -0 -0 -0 -0 -0 -0 -0 -0 -0 -0 -0 -0
-0 -0 -0 -0 -0 -0 -0 -0 -0 -0 -0 -0 -0 -0 -0 -0 -0 -0 -0 -0 -0 -0 -0 -0 -0 -0 -0 -0 -0 -0 -0 -0 -0 -0 -0 -0 -0 -1
-0 -0 -0 -0 -0 -0 -0 -0 -0 -0 -0 -0 -0 -0 -0 -0 -0 -0 -0 -0 -0 -0 -0 -0 -0 -0 -0 -0 -0 -0 -0 -0 -0 -0 -0 -0 -0 -0
-0 -0 -0 -0 -0 -0 -0 -0 -0 -0 -0 -0 -0 -0 -0 -0 -0 -0 -0 -0 -0 -0 -0 -0 -0 -0 -0 -0 -0 -0 -0 -0 -0 -0 -0 -0 -0 -0
-0 -0 -0 -0 -0 -0 -0 -0 -0 -0 -0 -0 -0 -0 -0 -0 -0 -0 -0 -0 -0 -0 -0 -0 -0 -0 -0 -0 -0 -0 -0 -0 -0 -0 -0 -0 -0 -0
-0 -0 -0 -0 -0 -0 -0 -0 -0 -0 -0 -0 -0 -0 -0 -0 -0 -0 -0 -0 -0 -0 -0 -0 -0 -0 -0 -0 -0 -0 -0 -0 -0 -0 -0 -0 -0 -0
-0 -0 -0 -0 -0 -0 -0 -0 -0 -0 -0 -0 -0 -0 -0 -0 -0 -0 -0 -0 -0 -0 -0 -0 -0 -0 -0 -0 -0 -0 -0 -0 -0 -0 -0 -0 -0 -0
-0 -0 -0 -0 -0 -0 -0 -0 -0 -0 -0 -0 -0 -0 -0 -0 -0 -0 -0 -0 -0 -0 -0 -0 -0 -0 -0 -0 -0 -0 -0 -0 -0 -0 -0 -0 -0 -0
-0 -0 -0 -0 -0 -0 -0 -0 -0 -0 -0 -0 -0 -0 -0 -0 -0 -0 -0 -0 -0 -0 -0 -0 -0 -0 -0 -0 -0 -0 -0 -0 -0 -0 -0 -0 -0 -0
-0 -0 -0 -0 -0 -0 -0 -0 -0 -0 -0 -0 -0 -0 -0 -0 -0 -0 -0 -0 -0 -0 -0 -0 -0 -0 -0 -0 -0 -0 -0 -0 -0 -0 -0 -0 -0 -0
Wind_Speed
7 7 6 5 4 6 6 5 4 4 10 8 4 9 6 7 9 11 11 17 17 16 15 15 15 14 14 14 14 14 15 15 15 14 14 14 14 14
6 9 2 2 4 5 4 4 6 7 9 6 5 3 5 5 5 11 12 12 17 16 16 16 16 15 16 16 15 15 15 15 15 14 14 15 14 15
12 10 8 9 4 2 5 6 6 3 4 6 2 1 1 2 4 7 7 9 10 18 17 17 17 17 16 16 16 17 17 16 16 15 16 16 17 16
12 11 11 7 9 8 6 6 7 7 3 6 2 3 5 4 3 2 5 7 7 14 16 16 17 17 17 17 17 16 16 16 17 17 16 17 16 17
10 10 12 11 9 6 7 6 5 3 7 3 3 4 3 3 3 3 4 6 4 6 12 14 14 15 16 16 15 16 15 14 15 16 17 15 16 16
9 10 10 9 12 9 7 8 6 5 4 6 6 5 4 4 4 4 5 6 6 7 9 9 12 15 13 14 14 13 15 15 15 16 16 15 15 15
10 9 10 15 14 12 7 8 5 6 4 3 4 3 4 3 7 6 8 6 8 7 7 7 6 7 7 11 11 16 15 15 15 15 16 16 15 15
9 9 7 11 13 13 5 8 12 5 7 3 2 2 1 3 3 3 5 4 3 5 5 5 5 6 7 7 13 12 16 15 14 13 14 13 13 14
10 9 7 8 10 10 5 4 9 11 7 5 4 5 3 5 6 4 4 3 2 5 2 5 4 5 5 3 8 10 10 12 12 11 12 12 12 12
10 10 9 10 12 11 6 5 7 12 11 8 9 7 6 5 5 4 4 6 2 6 7 4 2 5 3 4 11 10 10 9 9 8 8 8 9 10
9 11 11 10 16 19 4 5 6 6 7 10 9 9 5 12 10 4 1 1 2 4 7 4 5 5 4 4 4 13 10 8 8 8 8 9 9 7
5 8 16 13 16 18 6 4 4 4 4 5 5 8 8 10 15 9 4 1 1 3 6 4 4 4 3 3 4 6 5 7 3 4 5 3 2 3
3 4 6 9 13 12 10 7 4 5 2 3 4 2 4 7 6 7 8 6 2 3 5 3 3 3 3 3 3 10 8 8 7 8 9 11 1 4
4 4 5 4 4 9 7 10 9 6 2 3 4 4 4 4 5 5 7 7 8 7 4 5 2 2 2 3 3 6 6 8 8 8 8 7 6 5
5 3 4 9 9 5 5 9 5 3 3 3 4 4 5 5 5 6 5 6 7 6 6 6 5 2 1 2 3 4 5 7 9 7 8 8 7 6
4 3 2 4 4 4 3 2 5 5 4 4 4 4 4 3 5 5 3 3 4 4 6 7 7 6 4 4 4 4 6 4 6 5 6 6 6 5
6 5 4 3 3 2 1 3 4 3 4 4 4 3 4 4 4 4 4 4 4 5 5 5 6 5 5 5 4 4 5 5 6 8 7 7 5 6
5 5 3 4 4 3 2 2 3 2 4 4 4 3 4 4 4 4 4 4 4 4 4 5 6 3 4 5 10 6 6 5 4 6 6 6 5 5
7 5 4 3 3 3 2 2 2 3 2 3 3 3 3 4 3 4 4 4 4 4 4 5 6 6 4 3 4 11 7 6 6 6 6 6 8 7
9 6 5 5 4 4 3 3 3 3 3 2 3 2 2 2 3 4 4 4 3 3 4 5 6 6 5 5 5 5 5 7 7 8 8 7 7 13
9 8 7 6 6 5 5 3 3 3 2 2 3 2 1 2 3 2 4 3 3 3 3 4 5 4 4 4 2 3 6 8 5 7 9 8 8 8
10 10 9 8 8 7 6 6 6 5 6 5 4 3 3 2 3 2 1 1 2 2 2 2 3 3 3 4 4 6 5 6 8 2 10 5 5 6
11 11 9 9 8 8 8 8 8 8 7 6 5 6 5 4 4 3 3 3 2 0 1 2 3 3 3 4 4 6 8 7 6 7 6 6 3 7
Wind_Direction
326 317 198 177 169 177 181 195 229 175 196 208 192 179 187 203 201 183 207 185 196 202 208 211 210 211 215 219 222 225 228 231 232 231 231 234 237 238
344 337 306 116 190 176 164 196 217 240 217 190 234 146 209 217 201 202 208 170 195 200 205 214 219 219 219 220 221 224 223 225 229 232 231 234 235 237
16 3 357 28 19 178 195 204 206 179 244 172 128 170 18 287 309 218 214 206 196 199 204 211 217 223 226 227 225 221 222 223 225 227 229 233 235 238
18 7 9 25 26 13 1 218 206 198 223 150 145 170 199 197 246 253 252 248 232 185 196 207 215 221 223 225 227 228 226 223 226 230 228 231 235 237
19 22 10 18 26 12 353 349 345 256 197 172 143 184 194 168 182 202 222 250 258 194 198 210 215 222 225 224 228 232 228 229 229 230 232 229 231 236
27 33 22 11 20 344 3 329 340 325 256 213 188 182 182 137 184 196 219 214 228 224 220 212 198 215 224 223 225 224 225 228 228 228 232 230 231 236
31 24 25 17 5 15 3 326 13 334 294 240 206 181 189 159 204 203 225 221 210 212 203 203 201 216 222 229 239 220 223 222 224 227 228 229 229 233
25 19 29 26 357 354 27 20 43 19 322 336 306 204 265 338 318 263 251 252 235 211 215 228 190 236 240 232 198 202 205 218 224 226 230 228 228 231
26 14 17 17 15 345 316 31 45 39 25 341 55 25 28 18 326 294 333 295 258 31 250 246 189 222 221 222 188 198 206 207 217 221 225 224 227 233
42 16 13 15 5 349 320 58 50 48 32 41 60 45 31 360 298 286 320 304 298 65 358 263 260 255 238 208 198 209 215 220 229 217 225 222 221 235
80 43 19 20 0 354 41 65 51 46 81 61 72 63 25 7 1 262 74 351 287 75 23 338 332 331 294 253 198 197 198 212 225 220 213 205 198 227
84 91 48 19 1 3 22 51 71 43 38 44 18 42 41 34 26 26 3 59 70 119 23 340 341 346 272 34 60 48 68 17 316 9 352 354 168 272
75 83 66 28 29 6 19 30 6 310 85 79 59 47 43 56 37 29 34 36 60 82 14 308 1 360 342 327 8 52 38 25 44 32 34 28 154 252
21 52 83 359 16 32 19 339 303 271 115 84 80 48 45 48 80 55 51 57 58 66 6 27 59 16 357 331 347 9 29 37 22 22 5 356 87 190
26 54 296 293 272 234 5 321 346 46 40 55 74 64 53 50 51 127 114 103 83 65 49 26 21 9 51 6 337 30 352 24 14 10 5 2 4 358
181 201 349 312 272 265 273 261 63 38 12 48 62 57 38 82 55 5 16 129 99 88 64 43 35 32 36 38 25 30 27 12 4 1 353 356 346 28
326 279 275 298 296 315 54 12 25 38 62 43 39 46 57 44 64 30 21 14 49 36 45 28 44 72 64 52 63 32 17 19 4 355 1 352 352 21
267 256 259 281 292 301 317 11 45 33 34 37 54 41 57 40 37 36 45 35 51 46 40 20 9 347 164 82 22 27 10 11 6 346 5 343 337 344
248 244 233 234 239 229 221 165 125 64 33 66 66 65 63 82 58 61 51 47 57 41 40 38 36 10 9 21 91 56 354 3 351 351 354 341 324 323
256 240 223 217 225 210 204 192 163 157 148 141 108 82 82 77 79 79 61 48 61 48 60 45 47 21 14 357 336 342 53 0 355 347 335 326 302 285
217 228 222 214 213 211 195 198 198 189 185 191 146 143 157 121 104 95 113 71 299 48 51 41 48 221 306 326 330 346 342 103 28 335 332 329 335 327
230 223 218 213 216 210 197 197 200 182 186 217 190 168 201 188 158 161 125 115 77 38 27 9 1 356 352 340 340 335 326 342 330 298 252 253 343 319
229 227 217 215 208 208 212 205 213 205 205 202 197 196 164 230 203 186 185 199 198 204 295 326 333 331 329 322 331 309 314 326 325 319 324 179 202 280